This is the latest recevied weather packets stored in our database for station/object KD8OZS. If no packets are shown the sender has not sent any weather packets the latest 10 day(s).
| Time | Temp. | Humidity | Pressure | Rain* | Wind** | Luminosity | Snow |
|---|---|---|---|---|---|---|---|
| 1787779835 | 26.67° C | 64% | 1007.4 hPa | 0 mm | - | 241 W/m² | - |
| 1787779534 | 26.11° C | 65% | 1007.1 hPa | 0 mm | - | 246 W/m² | - |
| 1787779229 | 25.56° C | 66% | 1007.5 hPa | 0 mm | - | 269 W/m² | - |
| 1787778929 | 26.11° C | 65% | 1007.3 hPa | 0 mm | - | 105 W/m² | - |
| 1787778625 | 26.11° C | 63% | 1007.2 hPa | 0 mm | - | 296 W/m² | - |
| 1787778320 | 25.56° C | 64% | 1007.3 hPa | 0 mm | - | 321 W/m² | - |
| 1787778016 | 26.11° C | 62% | 1007.5 hPa | 0 mm | - | 377 W/m² | - |
| 1787777710 | 26.67° C | 63% | 1007.5 hPa | 0 mm | - | 401 W/m² | - |
| 1787777407 | 26.11° C | 63% | 1007.5 hPa | 0 mm | - | 438 W/m² | - |
| 1787777106 | 25.56° C | 63% | 1007.8 hPa | 0 mm | - | 475 W/m² | - |
| 1787776805 | 26.67° C | 65% | 1008.1 hPa | 0 mm | - | 423 W/m² | - |
| 1787776504 | 26.67° C | 63% | 1007.8 hPa | 0 mm | - | 460 W/m² | - |
| 1787776202 | 26.11° C | 63% | 1007.8 hPa | 0 mm | - | 309 W/m² | - |
| 1787775896 | 25.56° C | 65% | 1008.1 hPa | 0 mm | - | 261 W/m² | - |
| 1787775591 | 25.56° C | 65% | 1008 hPa | 0 mm | - | 207 W/m² | - |
| 1787775290 | 25.56° C | 62% | 1008 hPa | 0 mm | - | 155 W/m² | - |
| 1787774984 | 26.67° C | 62% | 1008.2 hPa | 0 mm | - | 189 W/m² | - |
| 1787774683 | 27.22° C | 61% | 1008.2 hPa | 0 mm | - | 460 W/m² | - |
| 1787774382 | 27.22° C | 62% | 1008.3 hPa | 0 mm | - | 503 W/m² | - |
| 1787774078 | 27.22° C | 63% | 1008 hPa | 0 mm | - | 514 W/m² | - |
| 1787773776 | 26.67° C | 62% | 1008.1 hPa | 0 mm | - | 534 W/m² | - |
| 1787773471 | 26.67° C | 61% | 1008.1 hPa | 0 mm | - | 555 W/m² | - |
| 1787773167 | 26.11° C | 66% | 1008.4 hPa | 0 mm | - | 609 W/m² | - |
| 1787772862 | 25.56° C | 72% | 1008.3 hPa | 0 mm | - | 471 W/m² | - |
| 1787772561 | 25.56° C | 69% | 1008.4 hPa | 0 mm | - | 185 W/m² | - |
* Rain latest hour (hover to see other rain measurements)
** Current wind speed in m/s (hover to see current wind gust speed)